Flag for USA

Past Weather in Point Washington Wildlife Management Area, Florida, USA — Yesterday and Last 2 Weeks

Now
66 °F

Clear.


Feels Like: 66 °F
Forecast: 68 / 58 °F
Wind: 9 mph from West

Location: Tyndall Air Force Base

Current Time: Mar 26, 2019 at 2:02:20 am

Latest Report: Mar 26, 2019 at 12:56 am


Visibility: 10 mi

Pressure: 30.04 "Hg

Humidity: 90%

Dew Point: 63 °F

Location of Point Washington Wildlife Management AreaLocation

Past Weather in Point Washington Wildlife Management Area — Graph

°F

Point Washington Wildlife Management Area Temperature Yesterday

Maximum temperature yesterday: 72 °F (at 1:56 pm)
Minimum temperature yesterday: 51 °F (at 3:56 am)
Average temperature yesterday: 61 °F

High & Low Weather Summary for the Past Weeks

 TemperatureHumidityPressure
High77 °F (Mar 12, 2:56 pm)100% (Mar 11, 12:21 am)30.28 "Hg (Mar 11, 12:21 am)
Low44 °F (Mar 23, 6:56 am)24% (Mar 18, 2:56 pm)29.99 "Hg (Mar 21, 4:56 pm)
Average62 °F72%30.16 "Hg
* Reported Mar 11 12:06 am — Mar 26 12:56 am, Point Washington Wildlife Management Area. Weather by CustomWeather, © 2019

Note: Actual official high and low records may vary slightly from our data, if they occured in-between our weather recording intervals... More about our weather records

Advertising

Point Washington Wildlife Management Area Weather History for the Previous 24 Hours

Scroll right to see more
 ConditionsComfort  
Time TempWeatherWind HumidityBarometerVisibility
12:56 am
Tue, Mar 26
66 °FClear.9 mph90%30.04 "Hg10 mi
11:56 pm
Mon, Mar 25
66 °FClear.10 mph91%30.05 "Hg10 mi
10:56 pm66 °FClear.8 mph90%30.05 "Hg10 mi
9:56 pm66 °FClear.8 mph88%30.05 "Hg10 mi
8:56 pm66 °FClear.9 mph90%30.04 "Hg10 mi
7:56 pm66 °FClear.9 mph89%30.03 "Hg10 mi
6:56 pm67 °FClear.8 mph86%30.03 "Hg10 mi
5:56 pm70 °FClear.10 mph77%30.03 "Hg10 mi
4:56 pm71 °FSunny.13 mph71%30.03 "Hg10 mi
3:56 pm72 °FSunny.13 mph73%30.04 "Hg10 mi
2:56 pm72 °FSunny.10 mph73%30.06 "Hg10 mi
1:56 pm72 °FSunny.10 mph71%30.11 "Hg10 mi
12:56 pm72 °FSunny.9 mph71%30.13 "Hg10 mi
9:56 am68 °FSunny.6 mph94%30.14 "Hg10 mi
8:56 am64 °FSunny.No wind97%30.13 "Hg10 mi
8:01 am61 °FSunny.No wind94%30.12 "Hg7 mi
7:56 am60 °FFog.No wind97%30.12 "Hg4 mi
7:06 am52 °FFog.No wind100%30.12 "Hg0 mi
6:46 am52 °FFog.No wind94%30.11 "Hg0 mi
6:21 am52 °FFog.No wind94%30.10 "Hg0 mi
5:56 am52 °FFog.3 mph96%30.11 "Hg1 mi
5:16 am52 °FFog.No wind94%30.10 "Hg6 mi
5:01 am52 °FFog.No wind100%30.10 "Hg3 mi
4:21 am52 °FFog.No wind100%30.10 "Hg5 mi
3:56 am51 °FClear.No wind96%30.11 "Hg9 mi
2:56 am56 °FClear.No wind96%30.12 "Hg10 mi
Weather by CustomWeather, © 2019

See weather overview